Вернуться в каталог

LYRA-1

АктивенНаукаSSO
NORAD 62664·PAYLOAD·🇦🇺 Australia

Запущен Jan 14, 2025 с Vandenberg Space Force Base

Loading…

Ближайшие Пролёты (ближайшие 24 часа)

TLE

СвежийSource: Space-Track

Эпоха: Sep 14, 2026, 15:01 UTC

1 62664U 25009BH  26257.62570722  .00007546  00000-0  35101-3 0  9998
2 62664  97.3905 330.3870 0007441 234.1434 125.9110 15.20211974 92002

Отслеживайте LYRA-1 в реальном времени с AllMySat

Download on the App Store